Location: Unspecified
(0.0000°N, 0.0000°E)
Time: 16:11:57
(UTC+00:00)

HuskySat-1 - Pass Details

Date: 23 October 2021
Orbit: 443 x 456 km, 51.6° (Epoch: 29 November)

Event Time Altitude Azimuth Distance (km) Brightness Sun altitude
Rises 18:20:17 0° 332° (NNW) 2,453 ? -8.8°
Reaches altitude 10° 18:22:26 10° 337° (NNW) 1,585 ? -9.3°
Maximum altitude 18:25:56 52° 55° (NE) 569 ? -10.2°
Drops below altitude 10° 18:29:27 10° 132° (SE) 1,598 ? -11.1°
Enters shadow 18:31:15 - 136° (SE) 2,321 ? -11.5°
